This is the latest recevied weather packets stored in our database for station/object KI4BIY. If no packets are shown the sender has not sent any weather packets the latest 10 day(s).
| Time | Temp. | Humidity | Pressure | Rain* | Wind** | Luminosity | Snow |
|---|---|---|---|---|---|---|---|
| 1777476640 | 15.56° C | 99% | 1015.2 hPa | 0 mm | - | 45 W/m² | - |
| 1777476336 | 15.56° C | 99% | 1015.2 hPa | 0 mm | - | 49 W/m² | - |
| 1777476032 | 15.56° C | 99% | 1015 hPa | 0 mm | - | 55 W/m² | - |
| 1777475728 | 15.56° C | 99% | 1015.2 hPa | 0 mm | - | 55 W/m² | - |
| 1777475425 | 16.11° C | 99% | 1015.2 hPa | 0 mm | - | 59 W/m² | - |
| 1777475120 | 16.11° C | 99% | 1015.3 hPa | 0 mm | - | 42 W/m² | - |
| 1777474817 | 16.11° C | 99% | 1015 hPa | 0 mm | - | 46 W/m² | - |
| 1777474512 | 16.11° C | 99% | 1015.1 hPa | 0 mm | - | 32 W/m² | - |
| 1777474209 | 16.11° C | 99% | 1015 hPa | 0 mm | - | 69 W/m² | - |
| 1777473907 | 16.11° C | 99% | 1015 hPa | 0 mm | - | 76 W/m² | - |
| 1777473605 | 16.11° C | 99% | 1014.7 hPa | 0 mm | - | 54 W/m² | - |
| 1777473300 | 16.11° C | 99% | 1014.6 hPa | 0 mm | - | 35 W/m² | - |
| 1777472996 | 16.11° C | 99% | 1014.4 hPa | 0 mm | - | 71 W/m² | - |
| 1777472693 | 16.67° C | 99% | 1014.3 hPa | 0 mm | - | 43 W/m² | - |
| 1777472389 | 16.67° C | 99% | 1014.2 hPa | 0 mm | - | 22 W/m² | - |
| 1777472087 | 16.67° C | 99% | 1014 hPa | 0 mm | - | 26 W/m² | - |
| 1777471782 | 16.67° C | 99% | 1014.1 hPa | 0 mm | - | 34 W/m² | - |
| 1777471479 | 16.67° C | 99% | 1014.1 hPa | 0 mm | - | 50 W/m² | - |
| 1777471176 | 16.67° C | 99% | 1014.2 hPa | 0 mm | - | 29 W/m² | - |
| 1777470872 | 16.67° C | 99% | 1014.2 hPa | 0 mm | - | 45 W/m² | - |
| 1777470570 | 16.67° C | 99% | 1014.4 hPa | 0 mm | - | 33 W/m² | - |
| 1777470265 | 17.22° C | 99% | 1014 hPa | 0 mm | - | 35 W/m² | - |
| 1777469962 | 17.22° C | 99% | 1013.8 hPa | 0 mm | - | 57 W/m² | - |
| 1777469657 | 17.22° C | 99% | 1013.8 hPa | 0 mm | - | 67 W/m² | - |
| 1777469353 | 17.22° C | 99% | 1013.8 hPa | 0 mm | - | 65 W/m² | - |
* Rain latest hour (hover to see other rain measurements)
** Current wind speed in m/s (hover to see current wind gust speed)